| time (UTC) | temp F | wind direction | speed MPH | gust MPH | rain 1hr in | rain 24hr in | rain mn in | humidity % | barometer mb |
| 20260505004556 | 55 | 360 | 21.0 | 36.0 | 0.00 | 0.00 | 0.00 | 11 | 925.8 |
| 20260505004018 | 55 | 360 | 20.0 | 36.0 | 0.00 | 0.00 | 0.00 | 11 | 925.9 |
| 20260505003517 | 55 | 360 | 20.0 | 29.0 | 0.00 | 0.00 | 0.00 | 11 | 925.9 |
| 20260505003045 | 55 | 360 | 22.0 | 31.0 | 0.00 | 0.00 | 0.00 | 11 | 925.9 |
| 20260505002517 | 55 | 360 | 24.0 | 31.0 | 0.00 | 0.00 | 0.00 | 11 | 925.4 |
| 20260505002017 | 55 | 360 | 22.0 | 32.0 | 0.00 | 0.00 | 0.00 | 12 | 925.7 |
| 20260505001545 | 55 | 360 | 23.0 | 34.0 | 0.00 | 0.00 | 0.00 | 11 | 925.6 |
| 20260505001015 | 55 | 360 | 29.0 | 34.0 | 0.00 | 0.00 | 0.00 | 11 | 925.6 |
| 20260505000521 | 55 | 360 | 23.0 | 27.0 | 0.00 | 0.00 | 0.00 | 12 | 925.8 |
| 20260505000036 | 55 | 360 | 19.0 | 34.0 | 0.00 | 0.00 | 0.00 | 11 | 925.9 |
| 20260504235520 | 55 | 360 | 27.0 | 36.0 | 0.00 | 0.00 | 0.00 | 11 | 925.8 |
| 20260504235020 | 55 | 360 | 22.0 | 36.0 | 0.00 | 0.00 | 0.00 | 12 | 925.9 |
| 20260504234541 | 55 | 360 | 22.0 | 36.0 | 0.00 | 0.00 | 0.00 | 12 | 925.9 |
| 20260504234017 | 56 | 360 | 26.0 | 35.0 | 0.00 | 0.00 | 0.00 | 13 | 925.4 |
| 20260504233518 | 56 | 360 | 15.0 | 29.0 | 0.00 | 0.00 | 0.00 | 13 | 926.0 |
| 20260504233039 | 55 | 360 | 24.0 | 35.0 | 0.00 | 0.00 | 0.00 | 14 | 925.7 |
| 20260504232514 | 55 | 360 | 27.0 | 35.0 | 0.00 | 0.00 | 0.00 | 15 | 925.7 |
| 20260504232014 | 55 | 360 | 19.0 | 33.0 | 0.00 | 0.00 | 0.00 | 14 | 926.1 |
| 20260504231540 | 55 | 360 | 23.0 | 33.0 | 0.00 | 0.00 | 0.00 | 15 | 925.9 |
| 20260504231015 | 55 | 360 | 23.0 | 29.0 | 0.00 | 0.00 | 0.00 | 15 | 925.9 |
| 20260504230522 | 55 | 360 | 23.0 | 34.0 | 0.00 | 0.00 | 0.00 | 15 | 925.9 |
| 20260504230045 | 55 | 360 | 28.0 | 34.0 | 0.00 | 0.00 | 0.00 | 15 | 925.7 |
| 20260504225521 | 54 | 360 | 19.0 | 36.0 | 0.00 | 0.00 | 0.00 | 18 | 925.7 |
| 20260504225020 | 54 | 360 | 27.0 | 36.0 | 0.00 | 0.00 | 0.00 | 18 | 925.9 |
| 20260504224542 | 55 | 360 | 18.0 | 33.0 | 0.00 | 0.00 | 0.00 | 19 | 926.1 |
| 20260504224022 | 55 | 360 | 25.0 | 33.0 | 0.00 | 0.00 | 0.00 | 20 | 926.1 |
| 20260504223517 | 54 | 360 | 28.0 | 33.0 | 0.00 | 0.00 | 0.00 | 20 | 926.0 |
| 20260504223040 | 53 | 360 | 18.0 | 32.0 | 0.00 | 0.00 | 0.00 | 21 | 926.2 |
| 20260504222518 | 53 | 360 | 22.0 | 32.0 | 0.00 | 0.00 | 0.00 | 21 | 926.3 |
| 20260504222018 | 53 | 360 | 20.0 | 29.0 | 0.00 | 0.00 | 0.00 | 22 | 926.4 |
| 20260504221619 | 53 | 360 | 21.0 | 34.0 | 0.00 | 0.00 | 0.00 | 22 | 926.3 |
| 20260504221013 | 53 | 360 | 27.0 | 34.0 | 0.00 | 0.00 | 0.00 | 21 | 926.1 |
| 20260504220515 | 53 | 360 | 23.0 | 32.0 | 0.00 | 0.00 | 0.00 | 21 | 926.1 |
| 20260504220038 | 54 | 360 | 22.0 | 30.0 | 0.00 | 0.00 | 0.00 | 21 | 926.3 |
| 20260504215517 | 53 | 360 | 20.0 | 30.0 | 0.00 | 0.00 | 0.00 | 21 | 926.4 |
| 20260504215018 | 54 | 360 | 22.0 | 33.0 | 0.00 | 0.00 | 0.00 | 20 | 926.2 |
| 20260504214538 | 54 | 360 | 27.0 | 35.0 | 0.00 | 0.00 | 0.00 | 20 | 926.1 |
| 20260504214017 | 54 | 360 | 25.0 | 35.0 | 0.00 | 0.00 | 0.00 | 20 | 926.5 |
| 20260504213516 | 53 | 360 | 28.0 | 37.0 | 0.00 | 0.00 | 0.00 | 20 | 926.1 |
| 20260504213045 | 53 | 360 | 27.0 | 37.0 | 0.00 | 0.00 | 0.00 | 19 | 926.5 |
| 20260504212518 | 53 | 360 | 29.0 | 46.0 | 0.00 | 0.00 | 0.00 | 18 | 926.3 |
| 20260504212018 | 54 | 360 | 30.0 | 46.0 | 0.00 | 0.00 | 0.00 | 17 | 926.0 |
| 20260504211548 | 54 | 360 | 33.0 | 39.0 | 0.00 | 0.00 | 0.00 | 18 | 925.7 |
| 20260504211016 | 54 | 360 | 27.0 | 35.0 | 0.00 | 0.00 | 0.00 | 19 | 926.4 |
| 20260504210517 | 53 | 360 | 20.0 | 28.0 | 0.00 | 0.00 | 0.00 | 20 | 926.6 |
| 20260504210052 | 53 | 360 | 20.0 | 31.0 | 0.00 | 0.00 | 0.00 | 21 | 926.4 |
| 20260504205521 | 54 | 360 | 26.0 | 31.0 | 0.00 | 0.00 | 0.00 | 19 | 926.1 |
| 20260504205024 | 54 | 360 | 19.0 | 29.0 | 0.00 | 0.00 | 0.00 | 22 | 926.2 |
| 20260504204549 | 54 | 360 | 20.0 | 36.0 | 0.00 | 0.00 | 0.00 | 21 | 926.6 |
| 20260504204020 | 54 | 360 | 23.0 | 36.0 | 0.00 | 0.00 | 0.00 | 21 | 926.6 |
| 20260504203517 | 53 | 360 | 28.0 | 36.0 | 0.00 | 0.00 | 0.00 | 21 | 926.2 |
| 20260504203054 | 53 | 360 | 26.0 | 36.0 | 0.00 | 0.00 | 0.00 | 20 | 926.4 |
| 20260504202519 | 53 | 360 | 20.0 | 29.0 | 0.00 | 0.00 | 0.00 | 22 | 926.5 |
| 20260504202019 | 53 | 360 | 20.0 | 34.0 | 0.00 | 0.00 | 0.00 | 23 | 926.4 |
| 20260504201544 | 53 | 360 | 24.0 | 35.0 | 0.00 | 0.00 | 0.00 | 21 | 926.4 |
| 20260504201023 | 53 | 360 | 27.0 | 35.0 | 0.00 | 0.00 | 0.00 | 21 | 926.3 |
| 20260504200519 | 53 | 360 | 28.0 | 34.0 | 0.00 | 0.00 | 0.00 | 21 | 926.2 |
| 20260504200049 | 54 | 360 | 22.0 | 34.0 | 0.00 | 0.00 | 0.00 | 21 | 926.7 |
| 20260504195517 | 53 | 360 | 26.0 | 34.0 | 0.00 | 0.00 | 0.00 | 21 | 926.2 |
| 20260504195021 | 53 | 360 | 26.0 | 35.0 | 0.00 | 0.00 | 0.00 | 23 | 926.0 |
| 20260504194601 | 53 | 360 | 26.0 | 35.0 | 0.00 | 0.00 | 0.00 | 23 | 926.2 |
| 20260504194020 | 53 | 360 | 21.0 | 32.0 | 0.00 | 0.00 | 0.00 | 23 | 926.4 |
| 20260504193517 | 53 | 360 | 26.0 | 32.0 | 0.00 | 0.00 | 0.00 | 23 | 926.2 |
| 20260504193049 | 53 | 360 | 22.0 | 31.0 | 0.00 | 0.00 | 0.00 | 23 | 926.4 |
| 20260504192520 | 53 | 360 | 23.0 | 31.0 | 0.00 | 0.00 | 0.00 | 23 | 926.3 |
| 20260504192023 | 53 | 360 | 25.0 | 35.0 | 0.00 | 0.00 | 0.00 | 24 | 926.5 |
| 20260504191605 | 53 | 360 | 23.0 | 35.0 | 0.00 | 0.00 | 0.00 | 24 | 926.5 |
| 20260504191016 | 53 | 360 | 20.0 | 28.0 | 0.00 | 0.00 | 0.00 | 24 | 926.4 |
| 20260504190520 | 53 | 360 | 22.0 | 33.0 | 0.00 | 0.00 | 0.00 | 25 | 926.4 |
| 20260504190058 | 53 | 360 | 24.0 | 33.0 | 0.00 | 0.00 | 0.00 | 25 | 926.1 |
| 20260504185519 | 53 | 360 | 26.0 | 31.0 | 0.00 | 0.00 | 0.00 | 26 | 926.5 |
| 20260504185021 | 54 | 360 | 23.0 | 33.0 | 0.00 | 0.00 | 0.00 | 26 | 926.5 |
| 20260504184606 | 53 | 360 | 20.0 | 33.0 | 0.00 | 0.00 | 0.00 | 27 | 926.4 |
| 20260504184020 | 54 | 360 | 23.0 | 32.0 | 0.00 | 0.00 | 0.00 | 26 | 926.3 |
| 20260504183521 | 54 | 360 | 21.0 | 33.0 | 0.00 | 0.00 | 0.00 | 28 | 926.0 |
| 20260504183040 | 53 | 360 | 24.0 | 33.0 | 0.00 | 0.00 | 0.00 | 28 | 926.4 |
| 20260504182527 | 54 | 360 | 24.0 | 31.0 | 0.00 | 0.00 | 0.00 | 29 | 926.3 |
| 20260504182020 | 53 | 360 | 23.0 | 28.0 | 0.00 | 0.00 | 0.00 | 32 | 926.4 |
| 20260504181548 | 52 | 360 | 22.0 | 27.0 | 0.00 | 0.00 | 0.00 | 34 | 926.4 |
| 20260504181016 | 52 | 360 | 21.0 | 27.0 | 0.00 | 0.00 | 0.00 | 34 | 926.5 |
| 20260504180524 | 52 | 360 | 22.0 | 27.0 | 0.00 | 0.00 | 0.00 | 33 | 926.6 |
| 20260504180053 | 53 | 360 | 22.0 | 29.0 | 0.00 | 0.00 | 0.00 | 32 | 926.0 |
| 20260504175523 | 53 | 360 | 22.0 | 28.0 | 0.00 | 0.00 | 0.00 | 31 | 926.3 |
| 20260504175022 | 53 | 360 | 22.0 | 29.0 | 0.00 | 0.00 | 0.00 | 29 | 926.1 |
| 20260504174545 | 53 | 360 | 19.0 | 32.0 | 0.00 | 0.00 | 0.00 | 29 | 926.1 |
| 20260504174019 | 53 | 360 | 21.0 | 32.0 | 0.00 | 0.00 | 0.00 | 28 | 926.3 |
| 20260504173523 | 54 | 360 | 23.0 | 29.0 | 0.00 | 0.00 | 0.00 | 28 | 925.9 |
| 20260504173055 | 55 | 360 | 21.0 | 26.0 | 0.00 | 0.00 | 0.00 | 28 | 925.9 |
| 20260504172519 | 54 | 360 | 22.0 | 27.0 | 0.00 | 0.00 | 0.00 | 28 | 926.2 |
| 20260504172024 | 54 | 360 | 21.0 | 34.0 | 0.00 | 0.00 | 0.00 | 28 | 926.2 |
| 20260504171552 | 53 | 360 | 26.0 | 34.0 | 0.00 | 0.00 | 0.00 | 28 | 926.0 |
| 20260504171028 | 53 | 360 | 17.0 | 31.0 | 0.00 | 0.00 | 0.00 | 30 | 926.2 |
| 20260504170521 | 54 | 360 | 18.0 | 31.0 | 0.00 | 0.00 | 0.00 | 29 | 926.3 |
| 20260504170109 | 55 | 360 | 21.0 | 27.0 | 0.00 | 0.00 | 0.00 | 29 | 926.1 |
| 20260504151019 | 49 | 360 | 13.0 | 17.0 | 0.00 | 0.00 | 0.00 | 43 | 926.7 |
| 20260504150521 | 49 | 360 | 14.0 | 17.0 | 0.00 | 0.00 | 0.00 | 44 | 926.8 |
| 20260504141022 | 47 | 360 | 6.0 | 9.0 | 0.00 | 0.00 | 0.00 | 47 | 927.0 |
| 20260504140520 | 46 | 360 | 7.0 | 9.0 | 0.00 | 0.00 | 0.00 | 47 | 927.0 |
| 20260504140104 | 46 | 360 | 7.0 | 9.0 | 0.00 | 0.00 | 0.00 | 48 | 926.9 |
| 20260504130515 | 45 | 360 | 2.0 | 3.0 | 0.00 | 0.00 | 0.00 | 49 | 926.9 |
| 20260504110509 | 45 | 360 | 2.0 | 3.0 | 0.00 | 0.00 | 0.00 | 47 | 926.9 |
| 20260504100512 | 46 | 360 | 4.0 | 8.0 | 0.00 | 0.00 | 0.00 | 47 | 927.3 |
| 20260504081527 | 49 | 360 | 13.0 | 18.0 | 0.00 | 0.00 | 0.00 | 36 | 926.9 |
| 20260504081016 | 49 | 360 | 14.0 | 18.0 | 0.00 | 0.00 | 0.00 | 36 | 926.9 |
| 20260504080511 | 49 | 360 | 11.0 | 18.0 | 0.00 | 0.00 | 0.00 | 36 | 926.6 |
| 20260504050512 | 54 | 360 | 23.0 | 32.0 | 0.00 | 0.00 | 0.00 | 28 | 922.7 |
| 20260504045512 | 55 | 360 | 23.0 | 34.0 | 0.00 | 0.00 | 0.00 | 27 | 922.4 |
| 20260504045012 | 56 | 360 | 26.0 | 31.0 | 0.00 | 0.00 | 0.00 | 27 | 921.9 |
| 20260504044536 | 57 | 360 | 14.0 | 21.0 | 0.00 | 0.00 | 0.00 | 26 | 921.9 |
| 20260504044016 | 57 | 360 | 12.0 | 20.0 | 0.00 | 0.00 | 0.00 | 26 | 921.7 |
| 20260504043517 | 57 | 360 | 10.0 | 19.0 | 0.00 | 0.00 | 0.00 | 26 | 921.5 |
| 20260504043037 | 57 | 360 | 8.0 | 11.0 | 0.00 | 0.00 | 0.00 | 26 | 921.4 |
| 20260504042511 | 57 | 360 | 9.0 | 12.0 | 0.00 | 0.00 | 0.00 | 26 | 921.3 |
| 20260504042013 | 57 | 360 | 9.0 | 13.0 | 0.00 | 0.00 | 0.00 | 25 | 921.4 |
| 20260504041539 | 58 | 360 | 9.0 | 13.0 | 0.00 | 0.00 | 0.00 | 25 | 921.4 |
| 20260504041011 | 58 | 360 | 9.0 | 13.0 | 0.00 | 0.00 | 0.00 | 25 | 921.4 |
| 20260504040511 | 59 | 360 | 9.0 | 14.0 | 0.00 | 0.00 | 0.00 | 25 | 921.3 |
| 20260504040040 | 59 | 360 | 10.0 | 14.0 | 0.00 | 0.00 | 0.00 | 24 | 921.2 |
| 20260504035512 | 59 | 360 | 9.0 | 14.0 | 0.00 | 0.00 | 0.00 | 24 | 921.1 |
| 20260504035011 | 59 | 360 | 11.0 | 14.0 | 0.00 | 0.00 | 0.00 | 24 | 921.1 |
| 20260504034543 | 60 | 360 | 10.0 | 17.0 | 0.00 | 0.00 | 0.00 | 24 | 921.1 |
| 20260504034013 | 60 | 360 | 12.0 | 19.0 | 0.00 | 0.00 | 0.00 | 23 | 920.7 |
| 20260504033511 | 61 | 360 | 15.0 | 23.0 | 0.00 | 0.00 | 0.00 | 23 | 920.5 |
| 20260504033038 | 61 | 360 | 17.0 | 23.0 | 0.00 | 0.00 | 0.00 | 22 | 920.3 |
| 20260504032512 | 62 | 360 | 17.0 | 22.0 | 0.00 | 0.00 | 0.00 | 21 | 920.2 |
| 20260504032012 | 62 | 360 | 15.0 | 20.0 | 0.00 | 0.00 | 0.00 | 20 | 920.2 |
| 20260504031533 | 63 | 360 | 14.0 | 19.0 | 0.00 | 0.00 | 0.00 | 18 | 920.2 |
| 20260504031012 | 63 | 360 | 11.0 | 18.0 | 0.00 | 0.00 | 0.00 | 16 | 920.0 |
| 20260504030511 | 64 | 360 | 13.0 | 23.0 | 0.00 | 0.00 | 0.00 | 15 | 919.9 |
| 20260504030033 | 64 | 360 | 17.0 | 23.0 | 0.00 | 0.00 | 0.00 | 14 | 919.5 |
| 20260504025510 | 66 | 360 | 5.0 | 10.0 | 0.00 | 0.00 | 0.00 | 12 | 919.5 |
| 20260504025011 | 67 | 360 | 4.0 | 6.0 | 0.00 | 0.00 | 0.00 | 11 | 919.3 |
| 20260504024541 | 68 | 360 | 2.0 | 12.0 | 0.00 | 0.00 | 0.00 | 12 | 919.3 |
| 20260504024011 | 67 | 360 | 8.0 | 12.0 | 0.00 | 0.00 | 0.00 | 12 | 919.3 |
| 20260504023511 | 68 | 360 | 6.0 | 9.0 | 0.00 | 0.00 | 0.00 | 12 | 919.3 |
| 20260504023035 | 68 | 360 | 6.0 | 10.0 | 0.00 | 0.00 | 0.00 | 12 | 919.2 |
| 20260504022516 | 69 | 360 | 7.0 | 12.0 | 0.00 | 0.00 | 0.00 | 12 | 919.4 |
| 20260504022013 | 70 | 360 | 8.0 | 17.0 | 0.00 | 0.00 | 0.00 | 12 | 919.4 |
| 20260504021537 | 70 | 360 | 11.0 | 18.0 | 0.00 | 0.00 | 0.00 | 11 | 919.3 |
| 20260504021012 | 71 | 360 | 15.0 | 18.0 | 0.00 | 0.00 | 0.00 | 11 | 919.3 |
| 20260504020511 | 71 | 360 | 14.0 | 18.0 | 0.00 | 0.00 | 0.00 | 11 | 919.1 |
| 20260504020035 | 72 | 360 | 11.0 | 16.0 | 0.00 | 0.00 | 0.00 | 11 | 919.1 |
| 20260504015513 | 72 | 360 | 10.0 | 19.0 | 0.00 | 0.00 | 0.00 | 10 | 918.9 |
| 20260504015017 | 72 | 360 | 11.0 | 19.0 | 0.00 | 0.00 | 0.00 | 10 | 919.0 |
| 20260504014538 | 72 | 360 | 16.0 | 19.0 | 0.00 | 0.00 | 0.00 | 10 | 919.1 |
| 20260504014017 | 73 | 360 | 14.0 | 16.0 | 0.00 | 0.00 | 0.00 | 8 | 918.9 |
| 20260504013510 | 73 | 360 | 12.0 | 16.0 | 0.00 | 0.00 | 0.00 | 8 | 919.0 |
| 20260504013040 | 73 | 360 | 12.0 | 20.0 | 0.00 | 0.00 | 0.00 | 8 | 919.1 |
| 20260504012511 | 73 | 360 | 13.0 | 17.0 | 0.00 | 0.00 | 0.00 | 8 | 919.2 |
| 20260504012015 | 74 | 360 | 12.0 | 16.0 | 0.00 | 0.00 | 0.00 | 8 | 919.2 |
| 20260504011535 | 74 | 360 | 13.0 | 20.0 | 0.00 | 0.00 | 0.00 | 7 | 919.2 |
| 20260504011013 | 74 | 360 | 16.0 | 22.0 | 0.00 | 0.00 | 0.00 | 7 | 919.1 |
| 20260504010510 | 74 | 360 | 12.0 | 20.0 | 0.00 | 0.00 | 0.00 | 7 | 919.2 |
| 20260504010037 | 74 | 360 | 14.0 | 21.0 | 0.00 | 0.00 | 0.00 | 6 | 918.9 |
| 20260504005514 | 75 | 360 | 17.0 | 21.0 | 0.00 | 0.00 | 0.00 | 6 | 919.1 |
| 20260504005011 | 74 | 360 | 12.0 | 18.0 | 0.00 | 0.00 | 0.00 | 6 | 919.1 |